Dades meteomassalio
Diari Summary for Noviembre 23, 2017 Units:  English    Metric   Both
« Previous Day
Next Day »
Diari Semanal Mensual Anual Personalitzat
  Maxima: Minima: Mijana:
Temperatura: TemperatureC °F -1.1 °F 7 °F
Rosada: DewpointC °F -5.2 °F 0.4 °F
Humitat: Humidity % 38 % 65 %
Velocitat del vent: WindSpeedKMH mph 0.0 mph 1 mph
Racha vent: WindSpeedGustKMH mph - -
Vent:- - SE
Pressio: PressurehPa in 1018.5 in -
Pluja: 0.0 in    
Historical Graphs
 
 
Tabular Data for Noviembre 23, 2017
Time Temperature Dew Point Pressure Wind Wind Speed Wind Gust Humidity Rainfall Rate (Hourly) solar Conditions
TemperatureC °F DewpointC °F PressurehPa in Calm     Humidity % HourlyPrecipMM in SolarRadiationWatts/m^2 W/m2 Conditions
00:06 -1.1 °F -5.2 °F 1019.2 in Calm     74 % 0.0 in 0.0 W/m2 CLR
00:11 -1.1 °F -4.8 °F 1019.2 in Calm     76 % 0.0 in 0.0 W/m2 CLR
00:16 -1.1 °F -4.8 °F 1019.2 in Calm     76 % 0.0 in 0.0 W/m2 CLR
00:21 -1.1 °F -5.0 °F 1019.2 in Calm     75 % 0.0 in 0.0 W/m2 CLR
00:26 -1.1 °F -5.0 °F 1019.2 in Calm     75 % 0.0 in 0.0 W/m2 CLR
00:31 -1.1 °F -5.0 °F 1019.2 in Calm     75 % 0.0 in 0.0 W/m2 CLR
00:36 -1.1 °F -5.0 °F 1019.2 in Calm     75 % 0.0 in 0.0 W/m2 CLR
00:41 -1.1 °F -5.0 °F 1019.2 in Calm     75 % 0.0 in 0.0 W/m2 CLR
00:51 -0.6 °F -4.1 °F 1019.2 in Calm     77 % 0.0 in 0.0 W/m2 CLR
00:56 -0.6 °F -3.9 °F 1019.2 in Calm     78 % 0.0 in 0.0 W/m2 CLR
01:01 0.0 °F -3.7 °F 1019.2 in Calm     76 % 0.0 in 0.0 W/m2 CLR
01:06 -0.6 °F -4.3 °F 1019.2 in Calm     76 % 0.0 in 0.0 W/m2 CLR
01:11 -0.6 °F -4.1 °F 1019.2 in Calm     77 % 0.0 in 0.0 W/m2 CLR
01:16 -0.6 °F -4.1 °F 1018.8 in Calm     77 % 0.0 in 0.0 W/m2 CLR
01:26 0.0 °F -3.6 °F 1018.5 in Calm     77 % 0.0 in 0.0 W/m2 CLR
01:31 0.0 °F -3.2 °F 1018.5 in Calm     79 % 0.0 in 0.0 W/m2 CLR
01:36 0.0 °F -3.7 °F 1018.5 in Calm     76 % 0.0 in 0.0 W/m2 CLR
01:41 -0.6 °F -4.1 °F 1018.5 in Calm     77 % 0.0 in 0.0 W/m2 CLR
01:51 -0.6 °F -3.9 °F 1018.5 in Calm     78 % 0.0 in 0.0 W/m2 CLR
01:56 -0.6 °F -3.8 °F 1018.5 in Calm     79 % 0.0 in 0.0 W/m2 CLR
02:01 -0.6 °F -3.8 °F 1018.5 in Calm     79 % 0.0 in 0.0 W/m2 CLR
02:06 0.0 °F -3.2 °F 1018.5 in Calm     79 % 0.0 in 0.0 W/m2 CLR
02:11 0.0 °F -3.2 °F 1018.5 in Calm     79 % 0.0 in 0.0 W/m2 CLR
02:12 0.0 °F -3.2 °F 1018.8 in Calm     79 % 0.0 in 0.0 W/m2 CLR
02:17 0.0 °F -3.2 °F 1018.8 in Calm     79 % 0.0 in 0.0 W/m2 CLR
02:27 -0.6 °F -3.8 °F 1018.8 in Calm     79 % 0.0 in 0.0 W/m2 CLR
02:32 -0.6 °F -3.6 °F 1018.8 in Calm     80 % 0.0 in 0.0 W/m2 CLR
02:37 0.0 °F -3.2 °F 1018.8 in Calm     79 % 0.0 in 0.0 W/m2 CLR
02:57 -0.6 °F -3.6 °F 1019.2 in Calm     80 % 0.0 in 0.0 W/m2 CLR
03:02 -0.6 °F -3.4 °F 1019.2 in Calm     81 % 0.0 in 0.0 W/m2 CLR
03:12 -1.1 °F -3.9 °F 1019.2 in Calm     81 % 0.0 in 0.0 W/m2 CLR
03:17 -1.1 °F -4.1 °F 1019.2 in Calm     80 % 0.0 in 0.0 W/m2 CLR
03:22 -0.6 °F -3.4 °F 1019.2 in Calm     81 % 0.0 in 0.0 W/m2 CLR
03:27 -1.1 °F -4.1 °F 1019.2 in Calm     80 % 0.0 in 0.0 W/m2 CLR
03:32 -1.1 °F -4.1 °F 1019.2 in Calm     80 % 0.0 in 0.0 W/m2 CLR
03:37 -1.1 °F -4.3 °F 1019.2 in Calm     79 % 0.0 in 0.0 W/m2 CLR
03:47 -1.1 °F -4.1 °F 1019.2 in Calm     80 % 0.0 in 0.0 W/m2 CLR
03:57 -1.1 °F -3.9 °F 1019.2 in Calm     81 % 0.0 in 0.0 W/m2 CLR
04:02 -1.1 °F -3.9 °F 1019.2 in Calm     81 % 0.0 in 0.0 W/m2 CLR
04:07 -0.6 °F -3.6 °F 1019.2 in Calm     80 % 0.0 in 0.0 W/m2 CLR
04:12 -0.6 °F -3.4 °F 1019.2 in Calm     81 % 0.0 in 0.0 W/m2 CLR
04:19 0.0 °F -3.1 °F 1019.2 in Calm     80 % 0.0 in 0.0 W/m2 CLR
04:20 0.0 °F -3.1 °F 1019.2 in Calm     80 % 0.0 in 0.0 W/m2 CLR
04:23 0.0 °F -3.1 °F 1019.2 in Calm     80 % 0.0 in 0.0 W/m2 CLR
04:25 0.0 °F -3.2 °F 1019.2 in Calm     79 % 0.0 in 0.0 W/m2 CLR
04:27 0.0 °F -3.2 °F 1019.2 in Calm     79 % 0.0 in 0.0 W/m2 CLR
04:32 0.0 °F -3.4 °F 1019.2 in Calm     78 % 0.0 in 0.0 W/m2 CLR
04:33 0.0 °F -3.4 °F 1019.2 in Calm     78 % 0.0 in 0.0 W/m2 CLR
04:38 0.0 °F -3.2 °F 1019.2 in Calm     79 % 0.0 in 0.0 W/m2 CLR
04:48 0.0 °F -3.4 °F 1019.2 in Calm     78 % 0.0 in 0.0 W/m2 CLR
05:03 -0.6 °F -3.6 °F 1019.2 in Calm     80 % 0.0 in 0.0 W/m2 CLR
05:13 -0.6 °F -3.6 °F 1019.2 in Calm     80 % 0.0 in 0.0 W/m2 CLR
05:18 -0.6 °F -3.8 °F 1019.2 in Calm     79 % 0.0 in 0.0 W/m2 CLR
05:28 -0.6 °F -3.8 °F 1019.2 in Calm     79 % 0.0 in 0.0 W/m2 CLR
05:33 0.0 °F -3.1 °F 1019.2 in Calm     80 % 0.0 in 0.0 W/m2 CLR
05:38 0.0 °F -3.2 °F 1019.2 in Calm     79 % 0.0 in 0.0 W/m2 CLR
05:43 0.6 °F -2.7 °F 1019.5 in Calm     79 % 0.0 in 0.0 W/m2 CLR
05:48 0.6 °F -2.5 °F 1019.5 in Calm     80 % 0.0 in 0.0 W/m2 CLR
05:53 0.6 °F -2.5 °F 1019.2 in Calm     80 % 0.0 in 0.0 W/m2 CLR
06:13 1.1 °F -2.3 °F 1019.5 in Calm     78 % 0.0 in 0.0 W/m2 CLR
06:18 1.1 °F -2.3 °F 1019.5 in Calm     78 % 0.0 in 0.0 W/m2 CLR
06:23 1.1 °F -2.1 °F 1019.9 in Calm     79 % 0.0 in 0.0 W/m2 CLR
06:28 1.1 °F -2.1 °F 1019.9 in Calm     79 % 0.0 in 0.0 W/m2 CLR
06:33 1.1 °F -2.7 °F 1019.9 in Calm     76 % 0.0 in 0.0 W/m2 CLR
06:43 1.1 °F -2.7 °F 1019.9 in Calm     76 % 0.0 in 0.0 W/m2 CLR
06:48 1.1 °F -2.5 °F 1019.9 in Calm     77 % 0.0 in 0.0 W/m2 CLR
06:49 1.1 °F -2.5 °F 1019.9 in Calm     77 % 0.0 in 0.0 W/m2 CLR
06:59 1.1 °F -2.7 °F 1019.9 in Calm     76 % 0.0 in 0.0 W/m2 CLR
07:04 1.1 °F -2.8 °F 1020.2 in Calm     75 % 0.0 in 0.0 W/m2 CLR
07:09 1.1 °F -2.7 °F 1020.2 in Calm     76 % 0.0 in 0.0 W/m2 CLR
07:14 0.6 °F -3.2 °F 1020.2 in Calm     76 % 0.0 in 0.0 W/m2 CLR
07:19 0.6 °F -3.2 °F 1020.2 in Calm     76 % 0.0 in 0.0 W/m2 CLR
07:24 0.6 °F -3.0 °F 1020.2 in Calm     77 % 0.0 in 0.0 W/m2 CLR
07:29 1.1 °F -2.5 °F 1020.2 in Calm     77 % 0.0 in 0.0 W/m2 CLR
07:34 1.1 °F -2.5 °F 1020.2 in Calm     77 % 0.0 in 0.0 W/m2 CLR
07:39 1.1 °F -2.5 °F 1020.2 in Calm     77 % 0.0 in 0.0 W/m2 CLR
07:44 1.1 °F -2.7 °F 1020.2 in Calm     76 % 0.0 in 0.0 W/m2 CLR
07:49 1.1 °F -2.7 °F 1020.2 in Calm     76 % 0.0 in 0.0 W/m2 OVC
07:54 1.1 °F -2.3 °F 1020.2 in Calm     78 % 0.0 in 9.0 W/m2 OVC
08:00 1.1 °F -2.5 °F 1020.2 in Calm     77 % 0.0 in 11.0 W/m2 BKN
08:05 1.1 °F -2.5 °F 1020.2 in Calm     77 % 0.0 in 9.0 W/m2 BKN
08:10 1.1 °F -2.7 °F 1020.2 in Calm     76 % 0.0 in 12.0 W/m2 BKN
08:15 1.7 °F -2.3 °F 1020.2 in Calm     75 % 0.0 in 21.0 W/m2 BKN
08:20 1.7 °F -2.3 °F 1020.2 in Calm     75 % 0.0 in 33.0 W/m2 BKN
08:25 1.7 °F -2.3 °F 1020.5 in Calm     75 % 0.0 in 42.0 W/m2 BKN
08:30 1.7 °F -2.3 °F 1020.5 in Calm     75 % 0.0 in 49.0 W/m2 SCT
08:35 1.7 °F -2.5 °F 1020.5 in Calm     74 % 0.0 in 53.0 W/m2 SCT
08:40 2.2 °F -2.1 °F 1020.5 in Calm     73 % 0.0 in 62.0 W/m2 SCT
08:45 2.8 °F -1.4 °F 1020.5 in Calm     74 % 0.0 in 81.0 W/m2 FEW
08:50 2.8 °F -1.6 °F 1020.5 in Calm     73 % 0.0 in 72.0 W/m2 FEW
09:00 3.3 °F -1.2 °F 1020.5 in Calm     72 % 0.0 in 90.0 W/m2 CLR
09:05 3.9 °F -0.9 °F 1020.9 in Calm     71 % 0.0 in 134.0 W/m2 CLR
09:10 4.4 °F -0.8 °F 1020.9 in Calm     69 % 0.0 in 134.0 W/m2 CLR
09:15 5.6 °F 0.3 °F 1020.5 in Calm     69 % 0.0 in 174.0 W/m2 CLR
09:20 5.6 °F -0.1 °F 1020.5 in Calm     67 % 0.0 in 86.0 W/m2 CLR
09:25 5.6 °F -0.5 °F 1020.5 in Calm     65 % 0.0 in 95.0 W/m2 CLR
09:35 6.1 °F -0.2 °F 1020.9 in Calm     64 % 0.0 in 142.0 W/m2 CLR
09:45 7.2 °F 0.2 °F 1020.9 in Calm     61 % 0.0 in 144.0 W/m2 CLR
09:55 8.3 °F 1.0 °F 1020.9 in Calm     60 % 0.0 in 156.0 W/m2 CLR
10:00 8.3 °F 0.8 °F 1020.5 in Calm     59 % 0.0 in 162.0 W/m2 CLR
10:05 8.9 °F 1.6 °F 1020.9 in Calm     60 % 0.0 in 141.0 W/m2 CLR
10:10 8.9 °F 1.3 °F 1020.9 in Calm     59 % 0.0 in 105.0 W/m2 CLR
10:20 9.4 °F 1.3 °F 1021.2 in Calm     57 % 0.0 in 111.0 W/m2 CLR
10:30 10.0 °F 1.6 °F 1021.2 in Calm     56 % 0.0 in 120.0 W/m2 CLR
10:35 10.0 °F 1.4 °F 1021.2 in Calm     55 % 0.0 in 128.0 W/m2 CLR
10:40 10.6 °F 1.9 °F 1021.6 in Calm     55 % 0.0 in 149.0 W/m2 CLR
10:50 11.1 °F 1.6 °F 1021.6 in Calm     52 % 0.0 in 158.0 W/m2 CLR
11:00 11.7 °F 1.8 °F 1021.9 in Calm     51 % 0.0 in 132.0 W/m2 CLR
11:15 10.6 °F 1.9 °F 1021.9 in East 5.6 mph 5.6 mph 55 % 0.0 in 144.0 W/m2 CLR
11:25 10.6 °F 2.1 °F 1021.9 in East 9.3 mph 9.3 mph 56 % 0.0 in 223.0 W/m2 CLR
11:35 11.1 °F 2.9 °F 1021.9 in East 1.9 mph   57 % 0.0 in 211.0 W/m2 CLR
11:40 11.1 °F 2.9 °F 1021.9 in East 7.4 mph 7.4 mph 57 % 0.0 in 290.0 W/m2 CLR
11:45 11.7 °F 3.4 °F 1021.9 in Calm     57 % 0.0 in 329.0 W/m2 CLR
12:00 12.2 °F 3.4 °F 1021.9 in East 5.6 mph 5.6 mph 55 % 0.0 in 334.0 W/m2 CLR
12:05 12.2 °F 3.4 °F 1021.9 in ENE 5.6 mph 5.6 mph 55 % 0.0 in 262.0 W/m2 CLR
12:10 12.2 °F 3.4 °F 1021.9 in East 3.7 mph 3.7 mph 55 % 0.0 in 633.0 W/m2 CLR
12:15 12.8 °F 3.7 °F 1021.9 in Calm     54 % 0.0 in 489.0 W/m2 CLR
12:20 12.8 °F 3.7 °F 1021.9 in East 3.7 mph 3.7 mph 54 % 0.0 in 278.0 W/m2 CLR
12:25 12.8 °F 3.4 °F 1021.9 in Calm     53 % 0.0 in 374.0 W/m2 CLR
12:30 13.3 °F 3.9 °F 1021.6 in Calm     53 % 0.0 in 506.0 W/m2 CLR
12:35 13.3 °F 3.4 °F 1021.6 in East 1.9 mph   51 % 0.0 in 471.0 W/m2 CLR
12:40 13.9 °F 3.6 °F 1021.6 in Calm     50 % 0.0 in 459.0 W/m2 CLR
12:45 14.4 °F 3.8 °F 1021.6 in Calm     49 % 0.0 in 459.0 W/m2 CLR
12:50 14.4 °F 3.6 °F 1021.2 in Calm     48 % 0.0 in 461.0 W/m2 CLR
12:55 14.4 °F 3.3 °F 1021.2 in Calm     47 % 0.0 in 473.0 W/m2 CLR
12:57 14.4 °F 2.9 °F 1021.2 in Calm     46 % 0.0 in 422.0 W/m2 CLR
13:02 15.0 °F 3.2 °F 1021.2 in Calm     45 % 0.0 in 452.0 W/m2 CLR
13:07 15.0 °F 3.2 °F 1021.2 in East 7.4 mph 7.4 mph 45 % 0.0 in 478.0 W/m2 CLR
13:12 15.0 °F 3.2 °F 1020.9 in ESE 3.2 mph 3.2 mph 45 % 0.0 in 483.0 W/m2 CLR
13:17 15.6 °F 3.0 °F 1020.9 in East 5.6 mph 5.6 mph 43 % 0.0 in 388.0 W/m2 CLR
13:22 16.1 °F 3.5 °F 1020.9 in East 3.7 mph 3.7 mph 43 % 0.0 in 541.0 W/m2 CLR
13:27 16.1 °F 2.8 °F 1020.9 in East 3.7 mph   41 % 0.0 in 522.0 W/m2 CLR
13:32 16.7 °F 3.3 °F 1020.9 in East 3.7 mph   41 % 0.0 in 506.0 W/m2 CLR
13:42 17.8 °F 3.6 °F 1020.9 in ENE 5.6 mph 5.6 mph 39 % 0.0 in 640.0 W/m2 CLR
13:47 18.3 °F 3.8 °F 1020.5 in East 7.4 mph 7.4 mph 38 % 0.0 in 515.0 W/m2 CLR
13:52 18.3 °F 3.8 °F 1020.5 in ESE 7.4 mph 7.4 mph 38 % 0.0 in 605.0 W/m2 CLR
13:57 18.3 °F 3.8 °F 1020.5 in Calm     38 % 0.0 in 522.0 W/m2 CLR
14:07 18.3 °F 3.8 °F 1020.5 in ENE 5.6 mph 5.6 mph 38 % 0.0 in 439.0 W/m2 CLR
14:17 18.3 °F 3.8 °F 1020.5 in East 9.7 mph 9.7 mph 38 % 0.0 in 422.0 W/m2 CLR
14:32 18.3 °F 4.8 °F 1020.2 in East 7.4 mph 7.4 mph 41 % 0.0 in 420.0 W/m2 CLR
14:47 17.8 °F 4.3 °F 1020.2 in East 6.4 mph 6.4 mph 41 % 0.0 in 178.0 W/m2 CLR
14:52 17.8 °F 5.0 °F 1020.2 in ENE 5.6 mph 5.6 mph 43 % 0.0 in 476.0 W/m2 CLR
14:57 18.3 °F 5.5 °F 1020.2 in East 5.6 mph 5.6 mph 43 % 0.0 in 211.0 W/m2 CLR
15:07 18.3 °F 6.5 °F 1020.2 in Calm     46 % 0.0 in 468.0 W/m2 CLR
15:12 18.3 °F 6.2 °F 1020.2 in Calm     45 % 0.0 in 450.0 W/m2 CLR
15:17 18.9 °F 7.0 °F 1020.2 in Calm     46 % 0.0 in 404.0 W/m2 CLR
15:22 18.9 °F 6.7 °F 1019.9 in Calm     45 % 0.0 in 185.0 W/m2 CLR
15:32 18.9 °F 7.0 °F 1019.9 in Calm     46 % 0.0 in 338.0 W/m2 CLR
15:37 18.9 °F 7.0 °F 1020.2 in Calm     46 % 0.0 in 316.0 W/m2 CLR
15:42 19.4 °F 7.2 °F 1020.2 in Calm     45 % 0.0 in 257.0 W/m2 CLR
15:47 19.4 °F 7.2 °F 1020.2 in Calm     45 % 0.0 in 227.0 W/m2 CLR
15:57 18.9 °F 6.4 °F 1020.2 in Calm     44 % 0.0 in 141.0 W/m2 CLR
16:02 18.3 °F 5.8 °F 1020.2 in Calm     44 % 0.0 in 70.0 W/m2 CLR
16:07 18.3 °F 5.8 °F 1020.2 in East 3.7 mph 3.7 mph 44 % 0.0 in 156.0 W/m2 CLR
16:12 17.8 °F 5.7 °F 1020.2 in Calm     45 % 0.0 in 195.0 W/m2 CLR
16:13 17.8 °F 5.7 °F 1020.2 in Calm     45 % 0.0 in 197.0 W/m2 CLR
16:18 17.8 °F 6.0 °F 1020.2 in East 1.9 mph 1.9 mph 46 % 0.0 in 141.0 W/m2 CLR
16:23 17.8 °F 6.6 °F 1020.2 in ENE 5.6 mph 5.6 mph 48 % 0.0 in 77.0 W/m2 CLR
16:28 17.8 °F 6.6 °F 1020.2 in ENE 5.6 mph 5.6 mph 48 % 0.0 in 116.0 W/m2 CLR
16:33 17.2 °F 6.4 °F 1020.5 in Calm     49 % 0.0 in 111.0 W/m2 CLR
16:38 16.7 °F 5.9 °F 1020.5 in Calm     49 % 0.0 in 62.0 W/m2 FEW
16:43 16.1 °F 5.7 °F 1020.5 in Calm     50 % 0.0 in 62.0 W/m2 SCT
16:48 16.1 °F 5.7 °F 1020.5 in Calm     50 % 0.0 in 60.0 W/m2 SCT
16:53 16.1 °F 5.9 °F 1020.9 in ENE 1.6 mph 1.6 mph 51 % 0.0 in 39.0 W/m2 BKN
16:58 15.6 °F 5.4 °F 1020.9 in ENE 5.6 mph 5.6 mph 51 % 0.0 in 26.0 W/m2 BKN
17:03 15.6 °F 5.7 °F 1020.9 in Calm     52 % 0.0 in 25.0 W/m2 BKN
17:08 15.6 °F 5.7 °F 1020.9 in Calm     52 % 0.0 in 12.0 W/m2 BKN
17:23 15.6 °F 6.8 °F 1021.2 in Calm     56 % 0.0 in 5.0 W/m2 OVC
17:33 15.0 °F 6.6 °F 1021.2 in Calm     57 % 0.0 in 0.0 W/m2 OVC
17:38 15.0 °F 6.8 °F 1021.2 in Calm     58 % 0.0 in 0.0 W/m2 OVC
17:43 14.4 °F 6.3 °F 1021.2 in Calm     58 % 0.0 in 0.0 W/m2 OVC
17:53 13.9 °F 6.0 °F 1021.6 in Calm     59 % 0.0 in 0.0 W/m2 CLR
17:56 13.9 °F 6.0 °F 1021.6 in Calm     59 % 0.0 in 0.0 W/m2 CLR
18:01 13.9 °F 6.2 °F 1021.6 in Calm     60 % 0.0 in 0.0 W/m2 CLR
18:06 13.3 °F 5.7 °F 1021.6 in Calm     60 % 0.0 in 0.0 W/m2 CLR
18:11 13.3 °F 5.7 °F 1021.6 in Calm     60 % 0.0 in 0.0 W/m2 CLR
18:16 12.8 °F 5.2 °F 1021.6 in Calm     60 % 0.0 in 0.0 W/m2 CLR
18:21 12.2 °F 4.7 °F 1021.6 in Calm     60 % 0.0 in 0.0 W/m2 CLR
18:26 12.2 °F 4.9 °F 1021.6 in Calm     61 % 0.0 in 0.0 W/m2 CLR
18:41 11.1 °F 4.3 °F 1021.9 in Calm     63 % 0.0 in 0.0 W/m2 CLR
18:46 10.6 °F 3.6 °F 1021.9 in Calm     62 % 0.0 in 0.0 W/m2 CLR
18:51 11.1 °F 4.6 °F 1021.9 in Calm     64 % 0.0 in 0.0 W/m2 CLR
19:01 10.6 °F 4.0 °F 1021.9 in Calm     64 % 0.0 in 0.0 W/m2 CLR
19:06 10.6 °F 4.0 °F 1021.9 in West 1.9 mph 1.9 mph 64 % 0.0 in 0.0 W/m2 CLR
19:11 10.0 °F 3.7 °F 1021.9 in West 7.4 mph 7.4 mph 65 % 0.0 in 0.0 W/m2 CLR
19:21 9.4 °F 2.9 °F 1022.2 in Calm     64 % 0.0 in 0.0 W/m2 CLR
19:31 8.9 °F 2.7 °F 1022.2 in Calm     65 % 0.0 in 0.0 W/m2 CLR
19:41 8.3 °F 2.6 °F 1022.2 in Calm     67 % 0.0 in 0.0 W/m2 CLR
19:46 8.9 °F 3.1 °F 1022.2 in Calm     67 % 0.0 in 0.0 W/m2 CLR
19:56 8.9 °F 2.7 °F 1022.2 in WSW 11.1 mph 11.1 mph 65 % 0.0 in 0.0 W/m2 CLR
20:01 8.9 °F 2.7 °F 1022.2 in Calm     65 % 0.0 in 0.0 W/m2 CLR
20:06 8.3 °F 2.1 °F 1022.2 in SW 3.7 mph   65 % 0.0 in 0.0 W/m2 CLR
20:16 7.8 °F 1.8 °F 1022.6 in West 1.9 mph 1.9 mph 66 % 0.0 in 0.0 W/m2 CLR
20:21 7.8 °F 2.1 °F 1022.6 in WNW 5.6 mph 5.6 mph 67 % 0.0 in 0.0 W/m2 CLR
20:26 7.2 °F 1.3 °F 1022.6 in Calm     66 % 0.0 in 0.0 W/m2 CLR
20:31 6.7 °F 0.6 °F 1022.6 in Calm     65 % 0.0 in 0.0 W/m2 CLR
20:41 6.7 °F 0.9 °F 1022.6 in WSW 7.4 mph 7.4 mph 67 % 0.0 in 0.0 W/m2 CLR
20:46 6.7 °F 0.6 °F 1022.6 in WSW 11.1 mph 11.1 mph 65 % 0.0 in 0.0 W/m2 CLR
20:51 6.7 °F 0.3 °F 1022.6 in WSW 1.9 mph 1.9 mph 64 % 0.0 in 0.0 W/m2 CLR
21:01 6.1 °F -0.2 °F 1022.9 in Calm     64 % 0.0 in 0.0 W/m2 CLR
21:06 6.1 °F -0.2 °F 1022.6 in Calm     64 % 0.0 in 0.0 W/m2 CLR
21:11 6.7 °F 0.8 °F 1022.6 in Calm     66 % 0.0 in 0.0 W/m2 CLR
21:16 6.1 °F 0.4 °F 1022.6 in Calm     67 % 0.0 in 0.0 W/m2 CLR
21:22 6.1 °F 0.8 °F 1022.9 in West 11.1 mph 11.1 mph 69 % 0.0 in 0.0 W/m2 CLR
21:32 5.6 °F 0.1 °F 1022.9 in Calm     68 % 0.0 in 0.0 W/m2 CLR
21:37 5.6 °F 0.1 °F 1022.9 in Calm     68 % 0.0 in 0.0 W/m2 CLR
21:42 5.6 °F 0.3 °F 1022.9 in Calm     69 % 0.0 in 0.0 W/m2 CLR
21:52 5.6 °F 0.1 °F 1022.9 in NW 5.6 mph 5.6 mph 68 % 0.0 in 0.0 W/m2 CLR
21:57 6.1 °F 0.8 °F 1022.9 in NW 5.6 mph 5.6 mph 69 % 0.0 in 0.0 W/m2 CLR
22:02 5.6 °F 0.1 °F 1022.9 in Calm     68 % 0.0 in 0.0 W/m2 CLR
22:12 5.0 °F -0.8 °F 1022.9 in Calm     66 % 0.0 in 0.0 W/m2 CLR
22:17 5.0 °F -0.8 °F 1022.9 in Calm     66 % 0.0 in 0.0 W/m2 CLR
22:22 4.4 °F -1.3 °F 1022.9 in Calm     66 % 0.0 in 0.0 W/m2 CLR
22:27 3.9 °F -1.9 °F 1022.9 in Calm     66 % 0.0 in 0.0 W/m2 CLR
22:32 3.9 °F -2.1 °F 1022.9 in Calm     65 % 0.0 in 0.0 W/m2 CLR
22:42 4.4 °F -1.6 °F 1023.2 in Calm     65 % 0.0 in 0.0 W/m2 CLR
22:57 3.9 °F -1.9 °F 1023.2 in Calm     66 % 0.0 in 0.0 W/m2 CLR
23:17 3.9 °F -1.7 °F 1022.9 in Calm     67 % 0.0 in 0.0 W/m2 CLR
23:22 3.9 °F -1.5 °F 1023.2 in Calm     68 % 0.0 in 0.0 W/m2 CLR
23:27 3.9 °F -1.5 °F 1023.2 in Calm     68 % 0.0 in 0.0 W/m2 CLR
23:32 4.4 °F -0.9 °F 1023.2 in Calm     68 % 0.0 in 0.0 W/m2 CLR
23:37 5.0 °F -0.2 °F 1022.9 in Calm     69 % 0.0 in 0.0 W/m2 CLR
23:42 5.0 °F 0.0 °F 1023.2 in Calm     70 % 0.0 in 0.0 W/m2 CLR
Lo Temps de Massalio
Compliments of Weather Underground - 1 mb